Weather in Palkino

Russia / Pskov Oblast     57°32′22″N   28°00′46″E
temp.,
°C
wind,
m/s
gust,
m/s
humid.,
%
clouds,
%
prec.,
mm/h
press.,
hPa
HPBL,
m
13 april, tue
tue1300:00+9s4137246 0.0 1019337
03:00+7s358047 0.0 101990
06:00+7sse377867 0.0 1019190
09:00+10s357092 0.0 1019275
12:00+11sw1369100 0.0 1020327
15:00+11nnw347787 0.0 1020514
18:00+8nnw5679100 0.0 1019532
21:00+6nnw4986100 0.0 1020454
14 april, wed
wed1400:00+5nnw51088100 0.0 1019469
03:00+3nnw51089100 0.0 1019489
06:00+2n51194100 0.0 1019502
09:00+2n41094100 0.1 1020459
12:00+3n4778100 0.1 1021524
15:00+5n4766100 0.1 1021691
18:00+6n3761100 0.0 1021541
21:00+5nne3669100 0.0 1022169
15 april, thu
thu1500:00+4nne4107090 0.0 1023327
03:00+3nne5117696 0.0 1023382
06:00+2nne41280100 0.0 1024493
09:00+5nne61265100 0.0 1024663
12:00+8nne794490 0.0 10241029
15:00+11ne794173 0.0 10231444
18:00+10ne6950100 0.0 10231342
21:00+7ne61158100 0.0 1024870
16 april, fri
fri1600:00+5nne61265100 0.0 1024831
03:00+4nne51281100 0.7 1024665
06:00+4ne51288100 1.1 1024580
09:00+4ne51282100 1.4 1024557
12:00+7ne6107372 0.0 1025645
15:00+11ne696298 0.0 1024972
18:00+11ene6105567 0.0 10241101
21:00+8ne5125442 0.0 1025480
17 april, sat
sat1700:00+6ne411655 0.0 1025414
03:00+4ne41172100 0.0 1026377
06:00+3ne5117699 0.0 1027411
09:00+6ene5116799 0.0 1027515
12:00+9ene586062 0.0 1028744
15:00+13ene585498 0.0 10271161
18:00+13ene5956100 0.0 10281074
21:00+9ne3970100 0.0 1028213